This demonstration page uses our WeatherBlox Daily Observations layout. Learn more.

Left ArrowRight Arrow

34.16533, -84.80231

Hourly Observations for October 27, 2021

Temp ( °F °C ) Dew Point ( °F °C ) Humidity (%) Winds ( mph kmh ) Pressure ( in mb ) Visibility ( mi km ) Precip ( " mm )
12:15 am 00:15 Clear 50 10 45 7 82 82 N N/A 29.96 1015 10 16 N/A
12:35 am 00:35 Clear 50 10 43 6 76 76 N N/A 29.96 1015 10 16 N/A
12:55 am 00:55 Clear 48 9 43 6 82 82 N N/A 29.95 1014 10 16 N/A
1:15 am 01:15 Clear 48 9 43 6 82 82 N N/A 29.95 1014 10 16 N/A
1:35 am 01:35 Clear 48 9 43 6 82 82 N N/A 29.95 1014 10 16 N/A
1:55 am 01:55 Clear 48 9 43 6 82 82 N N/A 29.94 1014 10 16 N/A
2:15 am 02:15 Clear 48 9 43 6 82 82 N N/A 29.95 1014 10 16 N/A
2:35 am 02:35 Clear 46 8 43 6 87 87 W 3 6 29.96 1014 10 16 N/A
2:55 am 02:55 Clear 46 8 43 6 87 87 N N/A 29.96 1014 10 16 N/A
3:15 am 03:15 Clear 46 8 43 6 87 87 N N/A 29.96 1014 10 16 N/A
3:35 am 03:35 Clear 46 8 43 6 87 87 N N/A 29.96 1014 10 16 N/A
3:55 am 03:55 Clear 46 8 43 6 87 87 N N/A 29.96 1014 10 16 N/A
4:15 am 04:15 Clear 45 7 43 6 93 93 N N/A 29.96 1014 10 16 N/A
4:35 am 04:35 Clear 45 7 43 6 93 93 N N/A 29.96 1014 10 16 N/A
4:55 am 04:55 Clear 45 7 43 6 93 93 N N/A 29.96 1014 10 16 N/A
5:15 am 05:15 Clear 45 7 43 6 93 93 WSW 3 6 29.97 1015 10 16 N/A
5:35 am 05:35 Clear 45 7 43 6 93 93 N N/A 29.97 1015 10 16 N/A
5:55 am 05:55 Clear 45 7 43 6 93 93 N N/A 29.96 1014 10 16 N/A
6:15 am 06:15 Clear 43 6 43 6 100 100 N N/A 29.95 1014 9 14 N/A
6:35 am 06:35 Clear 43 6 41 5 93 93 N N/A 29.95 1014 9 14 N/A
6:55 am 06:55 Clear 43 6 41 5 93 93 N N/A 29.95 1014 10 16 N/A
7:15 am 07:15 Clear 45 7 41 5 87 87 N N/A 29.96 1014 10 16 N/A
7:35 am 07:35 Clear 43 6 41 5 93 93 N N/A 29.96 1015 10 16 N/A
7:55 am 07:55 Clear 45 7 41 5 87 87 N N/A 29.96 1014 10 16 N/A
8:15 am 08:15 Sunny 45 7 41 5 87 87 N N/A 29.96 1014 9 14 N/A
8:35 am 08:35 Sunny 45 7 41 5 87 87 N N/A 29.96 1014 9 14 N/A
8:55 am 08:55 Sunny 45 7 41 5 87 87 N N/A 29.97 1015 9 14 N/A
9:15 am 09:15 Sunny 45 7 43 6 93 93 N N/A 29.97 1015 9 14 N/A
9:35 am 09:35 Sunny 46 8 43 6 87 87 W 5 7 29.98 1015 10 16 N/A
9:55 am 09:55 Sunny 48 9 43 6 82 82 W 7 11 29.98 1015 10 16 N/A
10:15 am 10:15 Sunny 48 9 43 6 82 82 VRB 7 11 29.99 1016 10 16 N/A
10:35 am 10:35 Sunny 50 10 43 6 76 76 VRB 7 11 29.99 1016 10 16 N/A
10:55 am 10:55 Sunny 52 11 43 6 72 72 N N/A 29.99 1015 10 16 N/A
11:15 am 11:15 Sunny 54 12 43 6 67 67 NNE 6 9 29.96 1015 10 16 N/A
11:35 am 11:35 Sunny 55 13 43 6 63 63 VRB 3 6 29.95 1014 10 16 N/A
11:55 am 11:55 Sunny 57 14 45 7 63 63 VRB 3 6 29.94 1014 10 16 N/A
12:15 pm 12:15 Sunny 57 14 45 7 63 63 VRB 3 6 29.93 1013 10 16 N/A
12:35 pm 12:35 Sunny 59 15 45 7 59 59 N N/A 29.93 1013 9 14 N/A
12:55 pm 12:55 Sunny 61 16 45 7 55 55 VRB 3 6 29.91 1013 10 16 N/A
1:15 pm 13:15 Sunny 63 17 45 7 52 52 VRB 6 9 29.91 1013 9 14 N/A
1:35 pm 13:35 Sunny 64 18 45 7 49 49 WSW 5 7 29.90 1012 9 14 N/A
1:55 pm 13:55 Sunny 66 19 45 7 46 46 W 5 7 29.89 1012 9 14 N/A
2:15 pm 14:15 Sunny 64 18 43 6 46 46 N N/A 29.88 1012 8 13 N/A
2:35 pm 14:35 Sunny 66 19 45 7 46 46 VRB 6 9 29.87 1011 10 16 N/A
2:55 pm 14:55 Sunny 66 19 45 7 46 46 N N/A 29.86 1011 10 16 N/A
3:15 pm 15:15 Sunny 68 20 45 7 43 43 N N/A 29.84 1011 10 16 N/A
3:35 pm 15:35 Sunny 68 20 45 7 43 43 N N/A 29.83 1010 10 16 N/A
3:55 pm 15:55 Sunny 70 21 43 6 38 38 N N/A 29.82 1010 9 14 N/A
4:15 pm 16:15 Sunny 70 21 43 6 38 38 N N/A 29.83 1010 10 16 N/A
4:35 pm 16:35 Sunny 70 21 43 6 38 38 N N/A 29.82 1010 10 16 N/A
4:55 pm 16:55 Sunny 70 21 43 6 38 38 N N/A 29.81 1009 10 16 N/A
5:15 pm 17:15 Sunny 72 22 45 7 38 38 N N/A 29.81 1009 10 16 N/A
5:35 pm 17:35 Sunny 70 21 46 8 43 43 N N/A 29.81 1009 10 16 N/A
5:55 pm 17:55 Sunny 70 21 45 7 40 40 N N/A 29.80 1009 10 16 N/A
6:15 pm 18:15 Sunny 68 20 45 7 43 43 N N/A 29.81 1010 9 14 N/A
6:35 pm 18:35 Sunny 64 18 48 9 56 56 N N/A 29.82 1010 10 16 N/A
6:55 pm 18:55 Clear 63 17 50 10 64 64 N N/A 29.82 1010 9 14 N/A
7:15 pm 19:15 Clear 61 16 50 10 68 68 N N/A 29.83 1010 10 16 N/A
7:35 pm 19:35 Clear 57 14 52 11 82 82 N N/A 29.81 1009 10 16 N/A
7:55 pm 19:55 Clear 59 15 52 11 77 77 N N/A 29.82 1010 10 16 N/A
8:15 pm 20:15 Mostly Clear 57 14 50 10 77 77 N N/A 29.83 1010 10 16 N/A
8:35 pm 20:35 Mostly Cloudy 57 14 52 11 82 82 N N/A 29.83 1010 10 16 N/A
8:55 pm 20:55 Cloudy 55 13 52 11 88 88 E 3 6 29.82 1010 10 16 N/A
9:15 pm 21:15 Cloudy 54 12 52 11 94 94 N N/A 29.82 1010 10 16 N/A
9:35 pm 21:35 Mostly Cloudy 54 12 52 11 94 94 N N/A 29.82 1010 10 16 N/A
9:55 pm 21:55 Mostly Clear 54 12 52 11 94 94 N N/A 29.82 1010 10 16 N/A
10:15 pm 22:15 Mostly Clear 55 13 52 11 88 88 N N/A 29.81 1010 10 16 N/A
10:35 pm 22:35 Partly Cloudy 55 13 50 10 82 82 N N/A 29.81 1010 10 16 N/A
10:55 pm 22:55 Partly Cloudy 55 13 50 10 82 82 N N/A 29.81 1010 10 16 N/A
11:15 pm 23:15 Mostly Clear 55 13 50 10 82 82 N N/A 29.81 1010 10 16 N/A
11:35 pm 23:35 Clear 57 14 48 9 72 72 N N/A 29.82 1010 10 16 N/A
11:55 pm 23:55 Mostly Cloudy 55 13 50 10 82 82 N N/A 29.83 1010 10 16 N/A

Powered by AerisWeather